EW7948 Weather Reports


Display with metric or nautical units.
time (UTC)temp
F
wind
direction
speed
MPH
gust
MPH
rain 1hr
in
rain 24hr
in
rain mn
in
humidity
%
barometer
mb
20260507143009 51 82 0.0 3.0 0.00 0.00 0.00 35 1018.2
20260507141515 49 82 0.0 0.0 0.00 0.00 0.00 38 1018.3
20260507140026 47 82 0.0 0.0 0.00 0.00 0.00 44 1018.3
20260507134503 44 82 0.0 0.0 0.00 0.00 0.00 46 1018.3
20260507133045 43 82 1.0 4.0 0.00 0.00 0.00 49 1018.1
20260507131606 42 82 2.0 4.0 0.00 0.00 0.00 48 1018.1
20260507130019 38 82 1.0 3.0 0.00 0.00 0.00 53 1018.1
20260507124532 37 82 0.0 2.0 0.00 0.02 0.00 54 1017.9
20260507123055 37 82 0.0 3.0 0.00 0.02 0.00 54 1017.8
20260507121549 37 82 2.0 3.0 0.00 0.02 0.00 57 1017.4
20260507120049 38 82 1.0 4.0 0.00 0.02 0.00 53 1017.3
20260507114545 39 82 0.0 2.0 0.00 0.02 0.00 52 1017.0
20260507113044 39 82 0.0 3.0 0.00 0.02 0.00 55 1017.1
20260507111547 39 82 0.0 2.0 0.00 0.02 0.00 57 1017.1
20260507110041 39 82 0.0 1.0 0.00 0.02 0.00 58 1017.3
20260507104538 40 82 0.0 0.0 0.00 0.02 0.00 55 1017.1
20260507103040 40 82 0.0 2.0 0.00 0.02 0.00 49 1017.1
20260507101543 41 82 0.0 0.0 0.00 0.02 0.00 52 1016.9
20260507100036 41 82 0.0 2.0 0.00 0.02 0.00 49 1016.8
20260507094539 42 82 0.0 0.0 0.00 0.02 0.00 49 1016.7
20260507093034 42 82 0.0 1.0 0.00 0.02 0.00 51 1016.8
20260507091530 42 82 1.0 3.0 0.00 0.02 0.00 50 1016.8
20260507090032 42 82 0.0 1.0 0.00 0.02 0.00 53 1016.6
20260507084525 42 82 0.0 1.0 0.00 0.02 0.00 43 1016.7
20260507083019 43 82 2.0 3.0 0.00 0.02 0.00 36 1016.6
20260507081522 44 82 0.0 2.0 0.00 0.02 0.00 35 1016.5
20260507080012 45 82 0.0 1.0 0.00 0.02 0.00 36 1016.4
20260507074509 46 82 0.0 1.0 0.00 0.02 0.00 34 1016.4
20260507073009 47 82 0.0 2.0 0.00 0.02 0.00 37 1016.5
20260507071503 48 82 1.0 4.0 0.00 0.02 0.00 37 1016.6
20260507070001 48 82 0.0 0.0 0.00 0.02 0.00 31 1016.4
20260507064558 49 82 0.0 5.0 0.00 0.02 0.00 31 1016.4
20260507063055 50 78 0.0 0.0 0.00 0.02 0.00 32 1016.3
20260507061553 50 78 2.0 8.0 0.00 0.02 0.00 29 1016.4
20260507060058 52 163 1.0 4.0 0.00 0.02 0.00 28 1016.2
20260507054550 52 165 0.0 2.0 0.00 0.02 0.02 28 1016.0
20260507053053 53 165 2.0 6.0 0.00 0.02 0.02 27 1015.8
20260507051545 53 169 1.0 3.0 0.00 0.02 0.02 28 1015.7
20260507050043 54 157 2.0 6.0 0.00 0.02 0.02 30 1015.7
20260507044554 55 148 1.0 3.0 0.00 0.02 0.02 28 1015.6
20260507043036 55 130 5.0 9.0 0.00 0.02 0.02 24 1015.5
20260507041533 56 142 3.0 8.0 0.00 0.02 0.02 24 1015.3
20260507040035 57 155 3.0 8.0 0.00 0.02 0.02 24 1015.1
20260507034535 58 145 6.0 11.0 0.00 0.02 0.02 23 1014.9
20260507033028 58 132 5.0 8.0 0.00 0.02 0.02 22 1014.6
20260507031525 59 153 4.0 9.0 0.00 0.02 0.02 22 1014.4
20260507030023 60 162 4.0 11.0 0.00 0.02 0.02 22 1013.8
20260507024521 60 141 7.0 11.0 0.00 0.02 0.02 21 1013.5
20260507023021 61 152 8.0 12.0 0.00 0.02 0.02 20 1013.3
20260507021520 62 138 6.0 14.0 0.00 0.02 0.02 21 1013.1
20260507020016 63 153 8.0 13.0 0.00 0.02 0.02 20 1012.8
20260507014515 64 153 8.0 15.0 0.00 0.02 0.02 19 1012.7
20260507013015 65 129 10.0 14.0 0.00 0.02 0.02 19 1012.5
20260507011512 66 169 5.0 11.0 0.00 0.02 0.02 20 1012.2
20260507010012 65 94 2.0 6.0 0.00 0.02 0.02 21 1012.1
20260507004512 66 55 3.0 9.0 0.00 0.02 0.02 21 1012.1
20260507003019 67 227 1.0 5.0 0.00 0.02 0.02 21 1012.1
20260507001518 66 256 4.0 7.0 0.00 0.02 0.02 21 1012.0
20260507000012 65 27 4.0 10.0 0.00 0.02 0.02 22 1011.9
20260506234509 66 327 0.0 9.0 0.00 0.02 0.02 22 1012.0
20260506233005 65 104 3.0 7.0 0.00 0.02 0.02 22 1012.0
20260506231603 64 57 2.0 11.0 0.00 0.02 0.02 23 1012.0
20260506230032 65 58 7.0 11.0 0.00 0.02 0.02 23 1011.9
20260506224618 64 219 2.0 8.0 0.00 0.02 0.02 24 1012.2
20260506223015 63 263 2.0 16.0 0.00 0.02 0.02 25 1012.1
20260506221510 63 21 4.0 13.0 0.00 0.02 0.02 25 1012.4
20260506220024 63 76 7.0 12.0 0.00 0.02 0.02 25 1012.5
20260506214502 62 49 10.0 19.0 0.00 0.02 0.02 25 1012.7
20260506213005 62 55 6.0 17.0 0.00 0.02 0.02 25 1012.7
20260506211501 61 38 10.0 15.0 0.00 0.02 0.02 26 1012.8
20260506210019 61 63 9.0 21.0 0.00 0.02 0.02 26 1012.6
20260506204521 60 71 7.0 17.0 0.00 0.02 0.02 26 1012.8
20260506203027 60 45 9.0 16.0 0.00 0.02 0.02 27 1012.8
20260506201523 60 5 10.0 16.0 0.00 0.02 0.02 26 1012.7
20260506200021 59 23 15.0 22.0 0.00 0.02 0.02 26 1012.8
20260506194501 59 42 10.0 19.0 0.00 0.02 0.02 28 1012.8
20260506193109 58 48 12.0 21.0 0.00 0.02 0.02 29 1012.7
20260506191511 58 47 13.0 18.0 0.00 0.02 0.02 28 1012.6
20260506190020 58 27 13.0 20.0 0.00 0.02 0.02 30 1012.8
20260506184527 58 40 11.0 24.0 0.00 0.02 0.02 31 1012.7
20260506183110 57 72 14.0 21.0 0.00 0.02 0.02 31 1012.5
20260506181600 57 58 15.0 21.0 0.00 0.02 0.02 31 1012.5
20260506180055 56 57 10.0 21.0 0.00 0.02 0.02 32 1012.3
20260506174552 56 44 14.0 21.0 0.00 0.02 0.02 33 1012.5
20260506173050 56 30 9.0 21.0 0.00 0.02 0.02 34 1012.1
20260506171556 55 67 11.0 24.0 0.00 0.02 0.02 36 1011.8
20260506170047 56 26 14.0 19.0 0.00 0.02 0.02 38 1011.3
20260506164544 55 45 14.0 19.0 0.00 0.02 0.02 40 1011.1
20260506163044 55 5 11.0 18.0 0.00 0.02 0.02 43 1010.8
20260506161539 54 25 11.0 17.0 0.00 0.02 0.02 45 1010.6
20260506160037 53 24 10.0 14.0 0.00 0.02 0.02 48 1010.5
20260506154536 53 39 9.0 14.0 0.00 0.02 0.02 51 1010.3
20260506153014 51 19 9.0 15.0 0.00 0.02 0.02 52 1010.1
20260506151521 50 17 10.0 13.0 0.00 0.02 0.02 55 1009.7